Location: Mountain Grove
(34.0887°N, 86.6172°W)
Time: 00:24:15
(UTC+00:00)

Hubble Space Telescope - Pass Details

Date: 14 July 2020
Orbit: 536 x 540 km, 28.5° (Epoch: 12 August)

Event Time Altitude Azimuth Distance (km) Brightness Sun altitude
Rises 03:19:34 0° 263° (W) 2,670 4.8 -23.5°
Reaches altitude 10° 03:22:02 10° 252° (WSW) 1,780 3.6 -23.8°
Enters shadow 03:23:27 18° 238° (WSW) 1,345 2.8 -24.0°
